Wind_Speed
34 34 34 32 31 33 34 34 35 32 29 30 32 32 32 33 32 31 31 32 30 29 29 28 28 28 26 26 25 26 26 26 25 24 24 23 22 20 17 14 14 17 18 18 18 18 18 18 18 19 18 18 17 16 15 15 15 15 16 16 14 14 14 12 12 17 20 19 21 23 22 23 25 26 25 24 24 23 21 20 20 20 20 22 22
33 33 33 32 33 34 33 32 33 31 28 29 30 30 32 34 34 32 31 31 31 30 29 29 29 28 27 26 26 26 26 25 25 24 24 24 23 21 20 18 16 17 19 21 20 20 19 19 19 19 18 19 19 17 15 14 14 14 16 16 15 15 17 16 13 15 20 20 20 23 25 25 26 27 27 26 25 25 24 24 23 23 23 24 25
33 34 34 34 34 34 31 30 31 31 29 29 29 29 30 32 34 34 32 29 30 31 30 30 30 29 28 27 27 27 26 25 25 25 25 25 24 22 21 21 20 20 21 22 21 20 20 20 20 18 17 18 19 17 15 14 14 15 16 17 17 16 17 19 17 15 18 21 20 18 19 21 24 27 28 28 28 26 26 26 25 25 26 26 27
32 34 36 35 33 32 31 30 30 30 30 29 29 29 28 27 30 33 30 26 27 31 31 30 30 29 28 28 28 28 27 26 25 25 25 25 25 24 23 23 23 22 23 23 22 20 19 20 21 19 16 17 19 18 16 16 17 17 17 17 18 18 18 20 21 19 18 20 21 21 22 24 26 27 27 28 29 28 27 27 25 26 28 28 29
32 33 34 34 32 31 31 30 30 30 31 30 29 29 27 25 27 30 29 26 26 29 31 31 31 30 30 29 29 29 28 28 27 26 26 25 25 25 24 24 24 24 25 25 24 22 21 21 21 19 17 17 19 18 17 17 17 17 18 18 18 19 19 20 22 22 19 20 22 24 26 28 29 29 28 27 26 24 25 26 26 27 28 28 30
32 32 33 33 31 31 31 31 30 31 31 30 29 29 28 25 26 29 29 28 26 27 29 31 32 31 31 30 30 30 29 29 29 28 26 25 26 25 25 25 25 26 26 26 25 24 23 23 22 20 19 19 19 19 18 17 17 18 19 20 19 19 19 20 21 21 20 21 23 23 23 23 24 26 28 27 24 20 19 21 22 24 27 28 27
32 32 33 32 31 31 32 31 31 31 31 30 28 27 28 26 26 28 29 28 27 26 26 28 31 32 32 31 30 30 30 29 29 29 28 27 27 27 26 25 26 26 27 27 25 23 23 24 23 22 23 23 23 21 19 18 18 19 21 21 20 18 17 17 18 18 19 20 20 21 21 20 19 20 23 24 23 21 20 19 17 18 22 24 24
32 32 33 32 31 32 32 31 31 31 30 30 29 27 27 27 27 27 28 28 28 27 26 26 29 31 31 31 31 30 30 30 30 30 30 29 28 28 27 26 25 25 27 27 26 25 24 23 23 23 24 25 25 24 22 21 19 19 21 21 19 18 17 15 15 16 17 18 19 19 19 18 18 18 18 18 18 20 21 20 17 17 17 18 21
33 32 32 31 31 32 32 30 30 31 31 32 33 30 27 27 27 26 28 29 28 27 26 25 25 27 29 30 30 29 29 30 30 31 31 30 29 27 26 27 27 26 26 26 26 27 26 24 24 24 25 26 26 25 25 24 22 22 22 20 17 17 18 16 16 17 17 18 19 18 17 17 16 16 15 14 15 19 21 18 16 15 14 14 19
33 33 32 32 32 32 32 32 31 33 35 37 37 35 29 26 27 27 28 29 28 27 27 25 24 25 26 28 28 28 28 30 32 32 31 30 29 26 25 27 29 28 27 27 27 27 26 25 25 26 27 28 28 27 27 27 26 26 26 23 20 18 18 18 19 19 20 21 20 18 18 18 17 16 16 16 17 19 18 15 14 12 10 11 17
33 34 32 32 32 33 35 36 35 36 38 38 38 37 33 28 27 28 28 29 30 29 27 26 25 25 24 25 26 26 28 31 33 33 32 31 29 26 25 27 28 28 27 27 28 26 24 24 25 27 28 29 29 29 28 28 28 28 28 28 27 25 23 22 21 21 22 23 23 21 21 22 21 18 17 19 18 17 15 14 11 7 7 10 16
33 33 30 29 33 35 34 34 35 35 38 38 37 37 35 30 28 29 30 31 31 30 28 27 28 27 24 23 24 25 28 31 33 33 33 32 31 29 26 24 24 25 25 26 26 24 23 23 23 24 27 28 28 27 28 29 28 28 28 29 29 29 29 28 26 25 24 24 26 25 24 26 25 20 18 21 20 16 13 11 7 5 7 11 18
32 32 29 28 33 35 32 32 33 34 37 38 37 36 35 32 30 30 30 30 29 30 29 28 28 28 26 25 25 25 26 29 33 34 33 32 31 31 29 25 22 23 23 24 24 24 24 24 23 24 27 28 28 28 28 29 29 29 29 30 30 31 31 31 30 30 30 28 28 29 27 27 26 23 24 27 26 19 11 6 7 7 10 17 25
30 30 29 29 34 35 33 34 34 34 37 38 36 35 34 33 31 30 28 28 27 28 29 28 28 28 28 27 26 25 25 28 32 34 33 33 32 31 31 28 25 23 24 24 24 25 26 25 25 26 26 26 28 29 28 28 28 27 26 26 28 29 30 32 32 32 33 33 34 35 34 34 32 33 34 34 34 28 16 12 16 15 18 25 29
29 29 28 29 33 35 34 34 34 34 36 36 35 34 33 32 31 29 27 26 27 29 30 29 28 28 29 28 26 26 28 30 32 33 33 33 32 31 32 31 29 26 25 26 27 27 27 26 27 28 26 25 28 29 27 27 25 22 21 22 23 24 25 28 30 32 33 34 35 37 38 39 39 38 35 32 33 27 17 19 22 15 19 31 32
28 29 29 30 33 35 34 33 33 33 34 34 33 32 31 32 33 32 28 26 25 27 29 29 28 28 30 30 27 27 29 31 33 35 34 33 32 31 32 33 32 30 28 28 29 29 29 28 28 28 26 27 30 30 29 28 25 22 21 22 22 22 22 24 27 30 32 33 34 35 36 37 37 36 34 32 33 29 23 23 17 8 16 29 28
28 29 30 31 33 34 34 34 33 33 32 32 31 31 31 33 34 33 29 26 24 25 27 27 27 28 28 28 27 28 29 31 34 35 34 33 32 32 33 33 33 32 31 31 30 29 31 31 30 28 26 28 32 32 30 29 27 25 24 23 23 24 24 23 25 29 31 30 30 31 32 34 35 36 34 32 33 34 29 22 13 10 18 24 23
28 29 30 31 32 34 35 34 33 31 30 30 30 30 30 31 31 31 30 28 26 26 26 26 26 26 26 27 28 30 29 30 33 35 34 33 33 33 34 33 32 32 32 32 32 32 32 33 32 30 29 30 32 32 30 29 28 27 26 24 24 25 24 24 23 24 26 27 27 28 29 30 31 34 35 32 33 34 26 17 14 17 22 24 25
28 30 31 30 31 34 35 34 33 30 29 29 29 29 30 31 31 31 30 29 27 25 25 25 25 25 25 27 30 31 29 27 31 34 34 34 33 33 34 32 30 30 30 30 30 30 32 33 33 34 34 34 33 32 31 30 29 29 26 23 24 25 24 23 23 23 24 24 24 25 25 27 30 33 35 33 31 30 24 18 16 18 23 27 29
31 31 30 28 31 35 35 34 33 30 29 30 31 32 33 32 29 28 27 26 25 25 24 24 24 24 24 25 27 30 29 27 29 33 34 34 33 33 34 32 29 28 29 28 26 25 26 29 32 34 34 33 32 31 31 31 31 30 26 23 23 24 22 21 22 24 25 26 27 27 26 28 33 33 29 25 23 22 19 16 14 15 18 22 26
32 30 28 26 28 32 32 32 32 31 30 33 33 32 31 29 27 26 26 25 25 24 23 23 23 23 23 24 25 26 28 28 30 32 33 33 33 33 34 33 30 28 27 27 26 23 22 23 28 32 32 31 30 29 28 29 30 30 28 26 26 27 25 25 26 28 31 33 33 31 26 25 28 26 21 18 17 15 13 10 10 14 16 18 21
32 28 27 26 26 29 30 31 32 30 29 30 30 27 27 27 25 25 26 24 24 23 23 22 22 21 21 22 23 24 28 30 31 31 32 33 33 33 34 34 33 30 26 24 24 23 22 24 28 31 30 28 28 27 26 25 25 27 27 26 26 26 27 28 30 32 33 31 28 23 18 16 17 17 15 15 13 11 11 11 10 11 13 17 20
31 28 29 28 26 30 33 33 32 29 26 27 28 27 26 26 25 25 26 24 22 22 23 22 21 21 20 20 21 22 27 32 33 33 33 34 34 34 34 34 35 33 28 24 23 23 23 25 28 29 28 27 27 25 24 23 22 22 22 21 20 21 23 25 27 27 25 21 18 15 13 12 13 14 13 13 14 14 16 16 14 12 12 14 17
31 29 30 28 28 31 33 32 30 27 25 26 27 27 25 25 24 24 25 24 22 22 23 23 22 23 22 22 22 22 24 29 33 34 35 34 34 35 34 33 34 35 32 28 25 23 22 22 24 26 26 24 23 22 20 19 18 18 17 16 16 16 17 18 17 16 14 13 12 11 11 10 10 12 14 16 17 19 20 19 17 14 12 13 15
32 31 29 28 28 29 29 28 28 27 26 26 27 27 25 24 24 23 23 24 23 22 23 22 23 25 24 23 23 21 22 24 27 30 33 34 34 34 34 33 33 34 34 32 28 24 22 22 23 23 22 20 18 16 16 15 14 13 12 12 11 11 11 11 10 9 9 9 8 8 8 9 9 12 15 18 19 20 21 20 19 17 15 14 16
31 30 28 28 28 27 25 26 26 27 27 26 27 28 26 24 24 23 23 23 23 22 23 22 22 24 23 22 22 21 20 22 23 25 28 31 32 32 32 33 32 31 33 34 31 27 26 25 23 20 17 15 13 11 11 11 10 10 9 8 8 7 8 8 7 6 5 5 5 6 7 8 11 14 17 19 20 20 19 18 18 17 16 17 17
29 29 28 28 28 26 24 24 24 25 26 25 25 25 25 23 23 22 22 22 22 23 24 22 21 22 22 22 22 20 19 20 20 20 22 27 31 32 32 32 31 32 33 34 34 32 28 23 20 17 14 12 10 9 9 9 8 8 7 7 7 7 7 6 5 3 3 2 2 4 7 10 13 17 19 20 19 17 15 15 15 16 17 18 18
27 27 27 28 27 26 26 26 24 21 21 23 23 22 23 23 22 22 23 24 23 23 23 22 21 22 22 21 20 19 18 18 19 21 22 25 27 29 30 31 31 32 32 33 34 34 28 20 15 13 11 10 9 9 9 9 8 7 7 6 6 5 5 4 3 3 2 3 5 6 10 12 14 15 17 19 18 16 14 13 14 15 16 17 17
22 22 22 23 24 26 27 26 24 19 18 21 23 23 23 24 23 22 23 25 26 25 22 21 21 21 21 20 19 18 17 18 22 25 26 27 25 25 26 28 29 30 30 30 28 25 20 16 14 13 12 11 10 9 9 9 8 8 8 8 7 6 6 5 4 5 7 9 8 8 10 13 13 14 15 16 16 15 13 13 14 15 16 17 16
16 16 16 15 17 21 21 20 19 18 17 21 24 22 21 22 23 22 21 24 28 28 26 23 22 21 20 20 21 21 20 20 24 25 25 25 24 24 24 25 25 25 25 24 20 15 12 13 14 14 14 13 12 12 11 11 12 11 11 11 10 9 8 6 6 7 9 9 8 8 10 11 11 11 11 12 14 14 14 14 14 15 16 16 16
11 10 10 10 12 14 12 11 14 16 19 23 24 22 18 16 19 21 21 22 25 28 29 28 25 24 22 21 23 26 25 24 24 23 21 20 21 22 23 23 22 20 19 17 15 12 12 13 12 11 12 13 14 15 15 16 15 13 12 12 11 10 7 7 8 8 6 6 6 8 9 9 9 9 10 12 14 14 14 14 13 14 15 15 15
9 8 7 7 9 9 8 9 12 13 16 20 21 20 17 13 11 14 17 18 20 23 26 27 26 26 25 23 23 25 24 24 23 21 18 16 18 20 21 20 18 15 13 13 14 13 12 12 12 12 13 15 16 16 16 17 17 14 11 10 9 8 7 8 11 9 6 6 6 6 6 7 8 9 10 11 12 13 13 13 13 14 15 15 15
8 8 7 7 7 7 7 10 11 10 12 14 15 15 14 12 11 11 11 12 14 17 19 21 22 23 22 22 22 22 20 20 20 18 16 15 15 16 16 14 12 12 13 16 17 16 15 16 17 17 17 16 16 16 16 16 16 13 10 8 9 8 8 10 12 9 8 8 6 5 5 6 8 9 9 10 10 10 11 11 11 12 14 15 16
7 7 7 7 8 7 8 9 9 9 10 11 11 12 11 10 12 13 12 10 9 9 10 12 14 17 18 18 19 18 16 15 14 14 14 14 14 15 15 14 14 14 15 19 22 22 21 21 20 19 18 17 17 17 16 16 14 12 10 9 9 8 9 10 9 7 6 6 5 5 6 7 7 8 8 9 10 10 10 10 10 11 13 14 16
6 7 7 7 7 7 7 8 8 9 9 9 10 11 10 9 11 12 11 10 10 9 8 6 5 8 11 13 12 12 12 11 9 9 11 13 16 18 20 22 22 19 17 19 23 25 24 22 20 18 17 17 17 17 16 16 14 11 9 8 8 7 7 7 7 6 6 5 4 6 6 6 7 7 7 8 9 9 10 11 10 11 13 14 15
6 6 7 8 8 8 8 8 7 7 8 9 10 10 9 9 10 10 9 11 13 14 13 15 16 14 13 12 12 12 13 14 16 18 18 17 18 21 23 24 25 25 23 22 23 24 23 21 19 18 17 17 15 13 11 12 12 10 8 7 6 6 5 5 5 6 5 4 4 6 6 4 5 6 6 7 8 8 9 10 9 10 12 13 15
5 4 5 7 9 10 10 9 8 8 8 9 10 10 10 10 11 13 14 15 16 16 15 15 18 22 24 24 23 22 23 22 23 23 20 14 15 20 22 20 21 24 24 21 20 21 21 20 19 19 18 17 15 13 11 11 11 9 7 6 5 5 5 5 5 5 4 3 3 4 4 3 4 6 6 7 8 8 8 9 9 9 10 12 13
6 4 5 7 9 10 11 11 11 11 11 12 12 13 13 14 15 17 18 18 18 18 17 16 16 19 23 24 24 25 25 24 24 23 20 16 17 21 22 20 20 22 22 21 21 22 22 21 19 18 17 17 16 15 13 11 10 8 6 6 5 5 5 5 5 4 4 3 3 3 3 3 4 5 6 6 7 8 8 9 10 10 10 11 12
8 6 7 9 10 10 11 12 13 15 15 15 15 16 17 18 18 18 18 19 19 19 19 18 18 18 20 21 22 24 25 24 22 21 22 22 21 20 21 21 21 21 21 21 22 23 22 21 18 16 15 14 13 12 11 10 8 8 7 6 5 5 5 4 4 4 4 2 2 2 3 4 5 6 6 6 6 7 8 9 9 9 9 10 11
8 7 7 9 10 11 13 14 15 16 17 18 20 22 22 22 23 23 22 23 23 24 25 25 22 21 22 23 23 24 25 23 18 16 19 21 20 17 18 19 20 20 20 20 20 20 20 19 17 14 13 11 11 10 10 9 9 9 8 8 6 5 5 4 4 3 2 1 1 2 3 5 6 6 6 6 7 7 7 8 8 7 7 8 9
9 8 9 10 11 13 15 15 15 16 17 20 23 25 23 23 26 27 26 25 25 27 30 30 27 25 26 26 26 27 27 24 18 17 20 22 20 18 17 17 17 17 17 16 16 16 16 16 14 12 10 9 8 8 8 8 7 7 8 7 6 4 3 3 2 2 1 1 2 3 3 5 6 6 6 7 8 7 6 7 8 7 7 7 8
10 9 9 10 11 13 15 16 17 18 19 21 23 24 25 26 28 29 28 26 24 26 29 29 27 27 27 26 27 29 29 27 24 23 24 24 22 21 20 18 17 17 16 15 13 13 12 12 12 10 9 9 7 6 6 5 5 4 4 4 3 2 2 2 2 3 3 3 4 4 5 6 6 6 6 7 7 7 6 7 7 7 7 7 7
12 10 10 10 11 13 15 16 17 18 19 20 21 24 25 26 26 27 27 24 22 23 25 25 24 26 26 26 27 28 27 26 26 26 25 24 23 21 21 20 18 17 16 15 14 13 12 12 12 11 10 9 7 6 5 4 3 3 2 2 2 2 2 2 3 4 5 5 6 7 7 7 7 7 7 7 6 6 7 7 7 7 7 7 7
14 12 11 10 11 12 13 15 16 18 19 19 20 20 20 19 20 21 22 20 18 18 18 17 19 23 26 25 25 26 25 24 24 24 24 23 22 22 21 20 18 17 16 15 14 13 12 12 11 10 9 8 7 6 6 5 4 3 3 3 3 3 4 5 6 7 7 8 8 8 8 8 8 9 9 9 8 8 7 6 7 7 7 7 6
14 12 11 10 10 11 12 14 16 17 18 18 18 18 17 17 18 18 18 17 17 16 16 15 17 21 23 23 22 22 21 21 21 21 21 21 22 21 20 18 16 15 15 14 13 12 11 11 10 10 9 9 8 7 6 6 6 6 6 6 6 6 7 8 9 10 10 11 10 9 9 10 10 11 11 11 10 10 9 7 7 7 6 6 6
14 13 12 11 11 11 12 13 15 16 16 16 16 16 16 16 16 16 16 16 16 16 16 15 16 17 18 18 18 18 18 17 18 19 18 19 20 21 19 17 15 14 14 13 12 11 10 9 9 9 8 8 8 7 6 6 7 7 7 7 8 9 9 10 11 11 11 12 12 11 11 11 11 12 12 11 11 11 10 9 8 7 7 7 6
12 13 13 12 12 12 12 12 14 15 15 15 15 16 16 15 15 15 16 16 16 16 16 15 15 15 16 15 15 15 15 15 16 17 17 18 20 20 19 18 17 16 15 15 13 12 11 10 9 9 9 8 8 7 7 7 6 6 7 7 8 9 10 10 11 11 11 12 12 12 13 12 12 12 11 10 10 10 10 10 10 9 8 7 7
12 13 13 13 13 12 12 13 14 15 15 15 15 15 15 15 15 14 14 15 15 15 15 14 13 13 14 14 13 13 14 15 17 19 20 20 21 21 20 19 19 18 17 17 16 15 14 14 13 13 12 11 11 11 10 9 8 8 7 7 8 9 10 10 11 11 11 12 12 12 13 12 12 12 11 10 9 8 8 9 10 9 9 9 9
17 16 15 14 14 14 13 14 15 15 16 16 16 16 16 16 15 14 14 14 15 14 14 14 14 14 14 15 14 15 16 17 18 19 20 21 21 21 21 21 21 21 20 20 20 19 18 18 17 17 16 15 15 15 14 13 12 12 11 11 10 9 9 9 10 10 10 11 11 11 11 11 11 12 13 12 10 8 7 7 7 7 8 9 9
20 20 18 16 15 14 14 15 16 16 16 16 16 16 15 15 15 15 14 14 15 14 13 14 13 13 14 14 13 14 15 16 17 18 19 20 21 22 23 23 23 23 23 22 21 21 21 20 19 19 18 18 17 17 16 15 14 14 13 12 11 11 10 8 8 8 8 9 9 10 10 9 8 10 11 12 11 10 9 8 8 7 7 7 7
22 22 21 20 18 17 17 18 19 19 19 20 22 23 23 21 21 21 21 20 19 18 18 17 16 15 16 17 17 18 20 20 20 22 23 24 24 24 25 24 24 24 23 22 22 21 21 21 20 20 19 19 19 18 18 17 16 15 15 13 12 12 12 11 9 7 7 6 6 7 7 7 7 7 8 8 8 8 8 8 8 8 7 7 7
Wind_Direction
196 198 199 200 202 204 206 208 210 209 209 212 215 216 218 221 223 224 227 230 232 233 236 238 241 244 245 244 243 244 245 246 246 248 250 252 253 252 248 243 244 249 252 254 256 259 262 264 266 269 271 272 272 273 274 276 277 276 273 270 262 258 257 246 251 272 277 277 280 283 285 289 294 296 297 299 301 303 302 298 295 292 288 287 287
196 196 196 198 202 204 205 206 208 208 207 210 214 215 218 222 224 224 225 229 232 233 235 238 242 245 244 244 245 245 247 247 246 247 249 252 254 253 252 249 245 246 252 255 257 258 261 264 267 268 269 270 270 267 267 266 266 266 268 268 262 258 260 255 249 265 277 279 281 284 286 288 290 291 293 295 296 298 297 295 294 291 289 288 287
195 194 195 199 201 202 202 202 205 205 205 208 211 213 216 220 223 224 224 225 230 232 235 238 241 244 244 244 246 246 247 248 246 246 248 251 252 252 253 253 251 249 253 257 258 257 259 263 266 265 263 267 270 266 262 260 260 260 262 265 264 260 261 262 255 255 270 279 281 282 283 283 286 289 291 292 292 292 291 290 290 288 286 285 284
194 194 196 199 200 199 199 200 202 203 204 208 210 211 213 215 219 223 222 219 226 232 235 237 239 242 243 243 245 246 247 247 246 247 249 251 252 253 254 255 256 255 256 258 258 256 256 260 265 264 258 263 270 268 263 262 264 265 264 265 266 265 263 265 262 257 262 273 278 279 281 283 285 287 288 290 291 291 289 287 285 283 283 283 282
193 194 196 198 198 198 200 200 201 202 204 207 209 210 210 209 214 219 219 216 221 229 233 235 236 239 240 241 243 245 246 247 246 247 248 250 252 253 254 256 258 258 259 261 260 259 258 260 264 264 258 260 267 267 264 264 265 266 266 265 266 268 267 267 268 263 259 264 273 278 281 284 286 288 287 287 288 288 287 287 285 283 282 281 281
192 192 194 196 197 198 199 200 201 202 204 206 208 208 207 207 210 215 218 218 219 224 229 232 234 236 238 239 240 243 246 246 246 247 247 248 251 252 252 254 257 259 261 262 262 261 261 263 265 264 261 262 265 265 265 265 265 267 269 269 268 268 267 267 267 265 260 262 270 275 277 278 281 284 287 287 285 282 281 282 283 284 285 284 282
189 190 192 194 196 197 198 199 200 201 203 205 205 205 206 207 209 213 216 217 218 220 223 228 232 235 237 237 239 241 244 245 246 248 247 246 250 252 251 251 254 257 260 261 261 260 261 264 266 265 265 268 268 267 267 266 266 268 271 273 270 266 264 263 262 260 259 261 266 270 273 275 274 276 282 286 284 281 277 275 274 278 284 286 286
186 188 190 192 195 196 197 198 199 200 201 202 204 204 205 207 209 212 214 216 218 220 220 223 229 233 235 236 237 239 241 243 244 246 247 246 247 249 250 250 250 254 258 260 261 260 260 262 263 264 267 269 270 270 269 268 267 268 272 272 267 264 263 261 257 257 258 260 263 266 270 272 271 271 277 277 275 277 278 274 270 272 279 284 289
184 187 189 192 195 195 195 196 198 199 200 203 206 205 204 206 208 210 214 216 217 219 220 220 223 227 230 233 235 235 236 238 240 242 243 244 245 245 246 248 250 251 255 258 260 261 261 260 260 262 265 269 272 274 274 272 269 268 270 269 265 264 264 261 261 262 263 264 265 266 267 268 267 267 267 260 263 276 279 271 266 273 281 284 289
184 187 189 193 194 193 193 196 198 200 204 208 211 210 207 207 209 211 214 218 218 219 220 219 219 222 225 228 230 231 232 236 240 242 242 242 242 241 242 247 251 251 253 255 257 259 259 259 260 263 267 271 275 276 277 277 274 272 272 269 265 264 264 266 269 271 272 273 271 270 271 270 267 266 267 267 269 275 275 266 265 276 287 294 299
184 188 192 193 193 194 197 200 202 204 208 210 212 213 211 209 211 213 215 218 220 220 219 219 220 222 223 224 225 227 231 236 241 243 244 243 241 239 240 246 250 250 251 252 255 256 256 258 261 264 269 273 275 277 279 279 278 277 277 275 272 268 264 265 269 272 275 277 278 278 277 277 274 268 269 274 273 268 266 265 268 289 328 326 310
187 190 192 190 192 196 197 200 203 206 209 211 212 213 213 210 210 213 215 218 219 219 219 220 223 225 223 224 224 225 230 237 241 244 245 245 243 240 239 241 244 245 246 247 251 253 254 256 258 261 266 270 272 275 278 280 281 281 281 280 278 274 270 266 265 266 269 274 280 281 279 280 280 272 268 276 278 272 271 277 288 317 318 292 276
187 189 189 189 192 195 195 196 200 203 207 210 211 211 211 210 211 213 216 218 218 219 221 222 224 225 223 224 225 225 229 237 242 244 245 245 244 242 240 238 239 241 243 244 247 250 252 255 255 258 264 268 270 272 274 277 281 283 284 283 281 280 278 273 269 266 265 266 271 274 275 276 274 270 274 281 283 278 275 301 319 307 277 259 258
185 187 189 189 192 194 195 197 199 201 205 208 208 208 209 210 212 214 215 216 216 218 220 221 223 224 224 225 227 228 230 236 242 245 244 244 243 242 241 239 239 241 242 243 246 249 252 254 255 258 261 264 268 271 271 273 275 277 279 280 280 282 282 281 279 275 269 264 262 266 272 274 273 275 281 285 285 281 277 284 283 275 273 274 272
183 185 186 187 190 194 195 197 198 201 204 205 206 207 208 210 211 212 213 214 215 217 220 221 223 225 226 227 228 231 234 237 241 244 244 244 242 242 242 240 240 242 243 244 247 250 252 252 255 258 258 259 264 267 268 268 268 268 269 270 273 277 278 279 281 280 276 271 267 269 275 278 279 280 281 284 284 282 279 280 277 266 271 279 277
182 184 185 187 190 193 194 195 197 200 201 203 204 205 207 210 212 212 212 213 215 218 221 222 222 225 227 227 227 232 236 238 240 243 244 243 241 239 240 240 241 242 244 246 248 250 252 252 254 256 256 258 264 268 269 267 263 262 264 267 269 272 273 275 279 281 280 277 276 277 281 284 286 286 286 287 286 283 276 276 277 252 261 272 271
184 185 187 189 191 192 194 195 197 199 199 200 202 204 207 211 213 212 212 213 215 217 219 221 222 224 227 225 225 231 236 238 241 243 243 242 238 236 237 239 240 242 244 247 249 250 252 253 254 255 255 259 264 269 270 268 263 260 261 265 269 272 275 277 278 280 281 283 285 287 289 292 295 296 296 296 295 290 278 265 257 237 250 264 270
186 186 188 189 190 192 194 196 197 197 198 199 202 204 207 209 212 212 213 214 216 218 220 222 224 225 225 225 226 231 234 238 241 243 243 241 238 236 236 237 238 241 244 247 249 251 253 254 255 255 255 259 265 269 270 267 262 259 259 262 267 272 276 278 278 280 285 289 293 295 296 298 299 301 302 303 303 298 285 269 261 245 239 244 253
187 189 190 191 192 194 196 197 197 197 198 200 202 204 208 210 212 213 214 215 217 220 220 221 223 224 225 226 229 233 234 236 241 244 244 241 238 236 236 235 235 238 241 245 247 249 252 255 257 257 258 262 266 269 269 265 261 259 259 261 267 271 274 277 279 285 289 291 293 295 296 297 297 299 300 301 303 300 294 292 283 249 230 233 239
188 190 191 192 195 198 198 199 199 198 199 202 205 208 210 212 211 211 213 215 218 221 221 221 224 225 225 226 229 232 232 233 239 243 243 241 238 235 234 232 232 235 238 242 243 245 248 253 257 260 262 264 266 268 269 266 263 261 260 259 264 268 273 278 280 284 287 288 289 291 291 292 294 295 295 296 299 300 299 302 291 260 237 234 236
188 188 188 190 194 198 199 200 201 201 203 206 208 210 211 211 210 210 213 215 218 220 220 221 224 226 226 226 228 230 232 234 237 241 243 241 239 236 233 231 232 234 236 239 241 243 245 247 254 262 265 266 268 269 270 269 267 265 263 263 265 269 272 276 279 282 283 285 288 290 290 291 293 294 295 299 304 308 308 302 285 268 254 244 244
188 187 188 190 192 195 199 202 203 203 205 207 207 208 210 211 210 210 212 214 215 217 217 218 221 225 227 228 227 229 234 238 239 240 242 242 241 238 235 234 234 234 234 236 239 241 242 246 255 263 266 267 269 270 271 272 270 267 267 269 273 275 275 275 277 280 282 284 288 291 291 292 297 300 304 310 315 318 316 308 295 279 264 256 257
188 189 190 191 193 197 202 204 204 205 206 205 205 207 209 209 208 208 209 210 211 215 216 216 220 224 227 230 230 230 235 242 243 242 243 244 244 242 240 239 239 236 233 234 238 240 242 247 255 262 265 265 267 269 271 272 269 267 270 271 272 273 272 271 273 276 280 283 286 290 295 302 309 311 314 319 321 323 323 321 315 302 283 271 269
189 190 192 193 196 200 204 205 204 205 205 203 204 207 206 204 206 206 207 208 211 217 220 220 223 228 231 235 235 231 232 240 245 245 244 244 244 244 244 243 242 239 235 235 239 241 242 245 251 259 263 264 265 266 266 266 263 263 265 264 262 262 261 263 267 272 277 283 287 293 303 312 316 317 318 322 327 332 335 334 327 317 305 293 287
191 192 193 194 197 199 201 203 203 204 204 202 203 206 205 203 205 206 206 209 212 217 221 220 223 228 230 233 235 231 228 233 239 243 245 245 245 245 245 244 243 240 237 237 239 241 242 244 248 254 258 259 259 257 254 252 251 252 252 249 249 251 252 258 266 271 276 283 289 297 308 314 317 320 325 331 338 341 341 337 333 329 325 318 309
192 194 195 196 198 198 200 202 204 205 206 205 207 209 207 205 206 206 206 208 210 216 220 218 219 224 228 231 233 230 226 228 232 237 241 243 243 244 244 244 244 242 239 237 237 239 242 245 247 249 250 248 243 238 236 237 236 235 236 239 243 248 256 260 263 267 274 282 293 305 314 324 330 337 343 347 348 347 343 338 336 335 333 330 324
193 198 201 201 200 199 200 204 207 208 207 207 209 210 208 205 205 204 204 206 209 216 220 218 216 220 225 228 229 227 225 226 226 226 232 238 241 241 241 240 240 239 238 236 236 237 239 241 241 238 235 233 228 222 221 220 218 220 227 235 239 242 248 249 235 220 231 261 313 330 336 345 349 351 354 354 352 348 345 342 338 337 337 335 327
191 198 203 205 205 204 205 207 207 206 205 205 207 208 207 207 208 208 207 207 208 212 215 215 213 216 218 220 222 222 222 222 221 221 224 230 234 235 236 236 235 234 235 235 235 234 232 227 224 220 216 213 209 207 208 207 209 220 222 216 214 214 212 207 191 172 139 60 33 13 5 4 2 359 357 357 354 349 347 347 344 340 339 336 329
180 187 194 202 207 209 211 211 208 205 202 203 206 208 208 208 211 213 213 213 212 212 214 214 214 215 217 218 218 218 218 221 228 233 235 235 233 230 231 235 236 235 235 233 230 226 220 214 213 213 211 207 199 196 201 199 194 192 186 175 165 158 151 145 132 101 72 56 43 27 18 13 7 1 357 354 351 347 348 350 349 345 340 337 332
164 171 178 185 196 204 209 209 206 204 201 200 202 205 207 209 210 211 215 218 218 218 220 221 219 218 218 220 222 224 225 230 239 244 245 244 241 236 235 238 238 236 234 228 217 203 195 199 206 209 208 203 194 187 181 173 165 159 156 153 145 135 132 125 103 81 65 57 49 35 25 17 7 359 355 350 346 348 351 351 349 347 344 341 337
154 160 167 172 181 190 195 196 196 197 199 198 197 196 196 203 209 211 215 220 221 221 224 226 226 227 227 229 234 237 237 238 242 247 247 245 242 238 236 236 234 234 232 219 199 185 184 185 185 187 186 180 173 170 166 161 155 146 140 139 132 124 121 105 89 82 73 63 53 38 27 16 3 358 358 355 350 348 349 351 351 349 346 343 341
158 155 155 163 174 179 186 191 190 190 191 192 192 190 185 181 188 202 212 217 219 221 224 226 228 231 232 235 240 244 243 240 241 244 246 243 237 232 230 230 228 227 220 197 178 170 169 162 152 150 156 156 156 159 159 156 150 142 138 136 129 123 116 96 87 84 77 68 60 43 28 16 7 4 2 356 351 348 348 349 351 351 347 345 345
150 149 148 153 161 165 176 185 184 181 182 183 184 185 182 175 168 169 181 197 207 213 217 220 224 226 228 230 235 240 244 244 242 241 237 231 223 216 211 207 201 194 186 177 167 155 149 146 142 144 150 153 153 154 151 147 144 141 139 134 126 121 106 89 84 82 72 68 64 46 30 20 13 9 4 356 351 349 348 348 349 351 351 348 346
129 134 142 148 153 157 168 178 178 178 181 182 182 186 186 177 166 159 156 161 173 183 194 205 213 216 216 218 223 229 234 234 233 231 224 212 202 194 182 164 154 158 166 166 157 147 142 143 144 147 151 150 147 144 141 140 139 137 132 126 119 110 95 84 85 85 73 68 65 46 34 28 18 9 2 360 358 354 350 349 351 355 357 353 349
113 116 125 133 140 147 157 166 170 175 181 183 186 189 184 168 159 161 162 154 139 123 112 112 141 184 197 197 200 206 208 201 192 188 183 175 172 170 159 143 136 138 144 145 142 138 137 137 136 138 140 140 139 139 137 137 136 132 127 122 114 104 95 90 90 85 76 74 63 41 31 24 15 4 356 356 357 356 354 353 353 357 359 356 351
101 112 124 133 138 142 145 151 158 165 169 172 177 173 158 147 149 150 140 125 114 103 91 86 88 98 113 123 127 133 136 134 130 126 124 128 137 140 134 128 129 132 132 130 129 129 130 131 132 134 136 136 135 132 130 132 133 131 126 119 109 101 102 105 103 90 77 71 52 35 30 19 4 359 356 356 356 355 352 351 353 358 0 356 352
74 88 116 133 140 141 139 138 142 148 149 150 153 147 134 131 131 121 108 103 100 96 93 92 91 91 93 97 103 109 112 115 118 117 111 108 120 123 117 112 116 122 124 125 127 128 129 131 135 136 136 133 129 125 125 128 129 128 125 117 110 109 113 120 120 101 78 69 50 31 23 11 356 352 350 351 353 353 352 353 357 359 358 357 354
76 85 115 128 129 128 127 127 132 139 139 135 135 133 125 117 112 106 102 101 100 98 98 98 96 95 96 98 103 107 109 109 110 111 111 113 118 121 121 121 122 121 122 125 127 127 126 127 130 131 130 128 126 126 127 127 127 129 127 117 110 111 113 116 113 93 75 70 61 37 20 6 360 356 351 347 347 349 351 356 359 359 358 360 359
72 84 109 116 109 106 111 116 118 121 123 120 118 117 111 102 99 98 99 101 102 101 99 94 91 95 102 106 109 111 109 104 100 102 106 108 109 112 118 121 120 119 120 122 123 122 121 121 121 121 122 122 122 123 125 125 124 123 118 110 105 103 102 103 100 89 83 80 60 37 17 4 360 356 349 344 343 344 347 353 358 359 359 358 355
68 75 90 96 97 100 106 110 110 111 112 112 111 110 106 101 100 101 101 101 102 101 99 95 93 99 108 113 115 112 103 96 93 97 101 102 103 104 106 106 107 110 114 116 116 117 117 117 118 118 119 122 122 122 124 122 117 111 105 101 98 93 89 91 92 89 90 82 33 12 2 357 356 351 345 343 341 338 338 343 349 354 356 355 351
72 75 80 87 95 102 103 103 102 103 106 108 109 109 107 106 107 107 107 106 107 106 105 103 104 110 115 118 121 120 113 107 105 103 101 101 102 99 96 95 98 104 109 110 111 112 113 115 116 115 115 116 114 113 116 113 106 103 101 95 91 84 78 81 80 58 23 338 338 338 340 343 343 339 337 339 339 335 332 337 344 347 348 351 350
82 76 75 84 95 101 100 98 98 100 101 104 107 109 111 112 113 113 112 111 111 109 107 105 106 110 113 117 121 122 119 116 112 105 101 100 99 98 98 101 103 105 107 107 106 107 110 113 115 114 113 112 107 101 102 96 85 84 84 76 69 60 43 32 13 351 334 317 310 312 314 320 325 326 324 326 328 328 331 337 341 341 341 344 347
93 82 75 80 90 98 100 99 99 100 101 102 105 110 112 113 112 111 110 110 109 107 105 105 106 108 111 116 119 116 110 107 106 104 102 102 101 100 101 104 106 109 111 110 111 114 116 116 115 114 112 111 107 102 100 94 84 79 69 43 21 5 354 342 327 321 317 311 308 307 306 306 307 307 306 309 313 316 320 325 330 333 336 337 338
99 92 89 87 86 90 95 98 100 101 102 103 103 105 107 107 106 107 107 107 107 106 105 105 107 107 109 112 114 109 103 100 99 99 100 101 101 102 103 104 105 106 107 106 108 111 111 107 103 100 97 93 89 82 76 67 57 46 34 17 353 333 328 326 322 317 313 309 307 304 303 303 301 299 299 303 306 304 304 307 315 321 325 327 331
100 97 99 96 89 86 89 96 101 103 105 105 103 101 101 102 103 104 104 104 104 103 101 102 105 106 106 105 103 99 97 96 96 95 96 98 99 101 103 105 104 102 101 101 101 102 102 99 94 88 81 75 68 60 50 39 28 16 6 358 344 333 330 329 325 321 318 315 310 302 295 293 294 294 296 300 300 297 294 293 296 301 306 311 317
101 101 102 100 97 95 94 98 102 105 105 105 103 101 100 100 100 102 103 102 102 102 100 98 99 100 99 97 96 94 93 92 91 92 93 95 98 101 104 104 103 101 99 98 97 96 96 95 90 84 76 66 59 51 40 30 20 9 1 353 342 332 329 326 323 321 319 316 311 305 296 289 286 287 291 293 292 289 286 284 284 285 290 297 300
101 105 106 104 102 101 100 101 103 103 101 100 100 100 101 100 98 98 99 99 99 100 99 98 97 97 97 97 97 96 95 94 94 95 96 97 99 101 102 102 102 102 100 99 98 96 94 91 90 88 84 76 70 63 53 42 30 13 1 350 337 327 321 316 315 315 315 313 309 305 300 291 283 281 284 286 285 284 281 280 281 280 278 281 281
101 101 103 104 105 104 102 102 101 100 99 98 97 96 97 97 95 95 95 95 96 97 98 99 99 99 99 100 100 100 102 102 102 102 101 100 101 102 102 101 101 100 99 98 96 94 93 92 92 91 88 83 78 73 66 59 50 37 24 10 354 340 328 319 314 311 309 308 307 304 300 293 284 278 274 273 275 281 283 283 285 285 281 279 277
108 104 100 100 103 106 106 104 102 101 101 100 98 94 94 94 92 91 92 93 93 94 96 98 100 100 101 102 103 104 105 105 104 103 103 102 103 103 103 103 102 101 99 98 96 94 93 92 90 88 85 81 77 73 67 61 55 48 41 31 18 4 349 333 321 313 309 311 313 309 303 298 292 285 278 270 266 268 273 276 281 283 280 278 278
106 104 100 97 99 103 104 102 102 102 101 100 98 96 95 94 92 91 91 92 92 92 93 94 95 96 98 99 99 100 102 103 104 105 107 108 107 106 105 104 103 101 98 97 96 95 93 91 88 86 83 78 74 69 63 57 51 46 40 33 24 17 10 357 337 319 310 314 321 322 318 315 309 297 285 274 267 265 266 269 275 280 281 280 283
97 98 97 93 93 94 93 92 93 95 94 93 94 94 93 91 91 91 92 92 91 92 93 94 93 93 95 98 100 103 105 106 107 108 110 111 110 108 107 105 103 101 99 97 95 94 92 90 88 85 82 78 74 70 64 59 54 48 41 34 28 23 19 16 8 355 335 322 322 328 331 332 329 317 304 291 283 277 274 272 272 272 272 278 289
Height
784 787 791 795 798 800 803 806 809 812 815 817 819 821 823 825 827 830 831 833 835 837 839 841 842 844 845 847 848 849 850 852 854 855 856 857 857 859 860 861 862 862 863 863 864 864 865 866 867 867 868 869 869 870 870 871 871 871 871 871 872 873 873 873 872 867 864 864 864 864 864 864 864 864 864 863 863 863 863 863 863 863 862 861 860
779 783 787 791 793 796 800 803 806 809 812 814 816 818 820 822 824 826 828 830 832 834 836 838 840 841 842 844 845 847 848 849 851 852 853 854 855 856 857 858 860 860 860 860 861 862 863 863 864 865 866 866 867 868 868 869 869 869 869 869 870 870 870 870 870 867 863 861 862 862 861 861 861 861 861 861 861 861 860 860 860 859 859 858 856
775 778 782 786 789 793 796 799 802 805 808 811 812 815 817 819 821 823 825 827 829 831 833 835 836 838 839 841 842 844 845 847 849 850 851 852 853 854 855 856 857 858 858 858 858 860 860 861 862 862 863 863 864 865 866 866 867 867 867 867 867 868 868 867 867 866 863 860 859 859 859 858 858 858 858 858 857 857 857 857 857 856 855 854 853
771 774 777 782 786 789 793 795 798 801 804 807 809 811 814 816 818 820 822 825 826 828 830 831 833 834 836 838 839 841 843 844 846 847 848 850 851 852 853 853 854 855 855 855 856 857 858 859 859 860 861 861 861 862 863 863 864 864 864 864 865 865 865 864 864 864 862 859 857 857 856 855 855 854 854 854 853 853 853 853 854 853 851 850 849
766 769 774 779 782 785 788 792 795 797 800 803 805 808 811 813 814 816 819 822 823 824 826 828 829 831 832 834 836 838 839 841 843 844 846 847 848 849 850 851 852 852 852 853 853 855 855 856 857 857 858 858 858 859 860 861 861 861 861 862 862 862 862 861 861 861 860 857 854 853 853 852 851 851 851 850 850 849 849 849 849 848 848 847 846
762 765 770 775 778 781 784 787 790 793 796 799 801 804 807 809 811 813 815 818 820 821 823 824 825 827 829 831 832 834 836 838 839 841 843 844 845 847 848 848 849 849 849 850 851 852 852 853 854 854 855 855 855 856 857 858 858 858 858 858 859 859 859 858 858 857 857 855 852 850 849 849 848 847 847 847 847 847 846 846 845 844 843 843 843
757 761 766 770 774 777 780 782 785 789 792 795 798 801 803 805 807 809 812 814 816 818 819 820 822 823 825 827 829 831 832 834 836 838 840 841 842 844 845 846 846 846 847 847 848 849 849 850 850 851 851 852 852 853 854 855 855 855 855 855 856 856 856 855 855 854 853 852 850 848 846 846 845 844 844 844 844 844 843 843 842 841 840 840 840
752 756 761 766 769 771 775 779 782 785 788 791 794 797 800 802 804 806 808 810 812 814 815 817 818 820 822 823 825 827 829 831 832 834 836 838 839 840 842 843 843 844 844 844 845 846 846 847 847 848 848 848 849 850 851 851 852 852 852 852 853 853 853 853 852 851 850 848 846 845 843 842 842 841 841 841 841 840 839 839 838 838 839 839 838
748 752 757 761 763 767 771 775 778 781 784 787 790 793 796 798 800 802 804 806 808 810 812 814 815 817 818 820 822 824 825 827 828 830 832 834 835 837 838 839 840 841 841 841 842 842 843 844 844 844 844 844 845 846 847 848 849 849 849 849 850 850 850 850 849 848 847 845 843 841 840 839 838 838 838 838 837 836 836 836 835 836 838 839 838
743 748 752 755 759 763 767 771 774 777 780 783 786 789 792 795 797 799 801 802 805 807 809 811 812 813 815 816 818 820 821 822 823 825 828 830 832 834 835 836 837 837 838 838 839 839 840 840 841 841 841 841 842 842 843 844 844 845 845 846 847 848 847 847 846 845 844 841 839 838 836 834 833 834 834 834 834 833 833 833 834 836 839 840 839
739 744 747 751 755 759 763 767 770 773 776 779 782 785 789 791 793 795 797 799 801 803 805 807 808 810 811 813 814 816 816 817 819 821 824 826 829 831 832 833 833 834 835 835 835 836 836 837 837 838 838 838 838 838 839 839 840 840 841 842 843 843 844 844 844 843 841 838 836 835 833 830 829 831 831 830 831 830 831 832 834 838 843 844 840
735 740 744 748 752 755 759 763 766 770 773 776 779 782 785 788 789 791 793 795 797 799 801 803 804 806 808 809 810 811 812 813 815 817 820 822 825 828 829 830 830 831 831 832 832 833 834 834 835 835 834 834 835 835 835 835 836 836 837 837 838 838 839 839 840 839 838 836 833 831 830 828 826 827 828 827 827 828 829 833 836 841 844 843 836
732 737 741 745 748 752 756 760 763 766 769 772 775 778 781 783 785 787 789 791 794 795 797 799 800 802 804 805 806 808 808 809 811 813 816 818 821 823 825 826 827 827 828 828 829 830 830 831 832 831 831 831 832 832 832 832 832 832 832 833 833 833 833 834 834 834 834 834 831 828 826 825 823 823 825 825 825 826 829 834 837 838 836 832 827
729 734 738 741 744 749 753 756 759 762 765 768 772 774 777 779 781 784 786 788 790 792 793 795 797 798 800 802 803 804 805 806 807 809 811 814 816 819 821 822 824 824 824 825 825 826 827 827 828 828 828 828 828 829 829 829 829 829 829 829 828 828 828 828 828 828 828 829 827 824 822 821 819 820 821 823 822 823 827 831 833 834 830 824 820
726 730 734 738 742 746 749 752 756 758 761 765 768 770 773 775 778 780 783 784 786 787 789 791 793 794 796 798 799 800 801 802 804 805 807 810 812 815 817 818 819 820 820 821 821 822 823 824 824 824 825 825 825 825 826 826 827 827 827 827 825 825 825 823 823 822 822 822 821 820 818 817 816 816 818 821 820 819 824 826 827 830 828 819 815
723 727 731 734 738 741 745 748 751 754 758 761 764 766 769 771 774 776 779 781 782 784 786 787 789 790 792 794 795 796 797 798 800 801 803 806 809 811 813 814 815 816 816 817 817 818 819 820 820 821 821 822 821 822 822 823 824 824 824 824 823 822 822 821 819 818 817 817 817 816 815 813 811 812 814 817 817 816 818 821 824 828 824 815 810
720 723 726 730 733 737 740 744 747 750 754 756 759 762 764 767 770 772 775 777 779 780 782 783 785 786 788 789 791 792 792 794 796 797 800 803 805 807 808 810 811 811 812 812 813 814 814 815 816 817 818 818 817 818 819 819 820 821 820 820 820 819 818 818 816 814 813 813 813 812 811 809 807 807 809 811 812 811 812 817 822 824 820 812 806
717 720 722 726 729 732 736 739 743 746 749 752 755 758 761 763 766 768 771 773 775 776 778 780 781 782 784 785 786 787 788 790 791 793 796 799 801 803 804 806 807 807 808 808 809 809 810 811 812 813 813 813 813 814 815 816 817 817 817 817 817 815 815 814 813 811 810 809 809 808 807 806 804 803 804 806 807 806 807 812 817 817 815 810 804
712 716 719 723 726 729 733 736 739 743 745 749 752 754 757 759 762 764 767 769 771 773 774 776 777 778 780 781 782 783 784 786 787 789 791 794 797 799 800 802 803 803 804 804 805 805 805 806 807 809 809 809 810 810 811 812 813 813 813 814 813 812 811 811 810 809 808 807 807 806 805 804 803 801 801 802 803 801 801 805 808 809 808 805 801
708 713 717 721 724 727 730 733 736 739 742 745 748 750 753 755 758 761 763 765 767 769 770 772 773 774 776 777 778 779 780 782 783 784 787 789 791 794 796 797 798 799 800 800 801 801 801 802 802 803 804 805 806 806 808 809 809 810 810 811 810 809 808 808 807 807 805 804 804 803 803 802 800 799 798 798 799 799 799 800 801 802 802 800 798
706 711 715 718 722 725 728 730 733 736 739 741 744 747 749 752 755 757 759 762 763 764 766 768 769 770 772 772 774 774 776 777 779 780 782 784 786 789 791 792 793 795 795 796 797 797 798 798 798 798 799 801 802 803 804 805 806 806 806 806 806 805 806 805 805 804 803 801 800 800 800 799 797 796 796 796 796 797 797 798 798 798 797 796 794
704 708 712 716 719 722 725 728 730 733 736 738 741 744 746 749 751 753 755 758 759 761 762 764 765 767 768 769 770 770 771 773 774 776 778 779 781 784 785 787 789 790 791 792 792 793 793 793 794 795 796 798 799 800 801 802 802 802 802 802 802 803 803 803 802 801 800 799 798 797 797 797 795 794 794 794 794 794 794 794 794 794 793 792 789
703 707 710 713 716 719 722 724 727 730 733 735 738 740 742 745 747 749 751 754 756 757 759 761 762 763 765 765 766 767 767 768 770 771 773 775 776 778 780 782 784 786 787 788 788 789 790 790 790 792 793 795 796 797 798 799 799 799 799 799 800 800 800 800 799 799 798 798 796 795 794 794 794 793 793 792 792 791 790 789 789 788 788 786 785
701 705 707 710 713 715 718 721 724 727 729 731 734 736 738 741 743 745 747 750 752 754 755 757 759 760 761 762 763 763 763 764 765 766 768 770 772 773 775 777 779 782 783 784 785 786 786 787 788 789 790 792 793 794 795 796 796 796 796 797 798 798 798 798 798 798 797 796 795 794 793 793 793 792 791 790 789 788 786 785 784 784 783 781 780
699 701 704 707 710 712 715 718 720 723 725 727 729 731 734 737 739 741 743 746 748 750 751 753 755 756 757 758 759 759 759 760 761 762 763 766 767 769 771 773 775 777 779 780 782 783 784 785 786 787 788 790 791 792 793 793 793 794 794 795 795 796 796 796 796 796 795 795 794 794 793 793 792 791 789 788 786 785 784 782 781 780 779 777 775
696 699 701 704 707 710 712 715 717 719 721 723 725 727 730 732 734 737 739 741 743 745 747 748 750 752 753 754 755 755 755 756 757 758 760 761 763 764 767 768 771 773 775 777 779 779 781 782 783 785 786 788 789 790 791 791 792 792 792 793 793 794 794 794 794 794 794 794 794 793 793 792 790 789 788 786 785 784 782 781 779 778 776 774 772
694 696 699 701 704 707 709 711 713 716 718 719 721 723 725 728 730 732 734 736 739 741 743 744 745 747 748 749 750 751 751 752 753 755 756 757 758 760 762 764 767 769 771 773 775 776 778 779 781 783 785 786 788 788 789 789 790 790 791 791 791 792 792 792 793 794 794 793 793 792 792 790 789 788 786 785 784 783 782 780 779 777 775 773 771
692 694 696 699 701 703 705 708 710 712 714 716 718 719 721 724 725 727 729 731 733 736 737 738 740 742 743 744 745 746 747 748 748 750 751 752 754 756 758 760 762 764 766 768 770 772 775 777 779 781 783 785 786 787 787 787 788 788 789 789 790 791 791 792 793 793 792 792 791 791 790 789 788 787 786 785 783 782 781 780 778 777 775 773 771
691 693 695 696 698 700 702 705 707 709 711 713 714 716 717 719 721 722 725 726 728 730 732 733 735 737 738 739 740 741 742 743 743 745 746 748 750 752 754 755 757 759 762 764 767 770 773 776 778 780 781 782 783 784 785 785 786 787 788 788 789 790 791 792 793 792 791 791 791 790 790 789 788 787 786 785 783 782 780 779 778 776 775 773 770
691 692 693 695 696 697 699 702 704 706 708 709 711 713 714 716 717 719 721 723 725 727 729 730 732 733 735 736 736 737 739 740 740 742 744 745 747 749 751 753 754 756 759 761 765 768 771 773 775 777 778 779 780 781 782 784 785 786 787 788 789 790 791 792 792 791 790 790 790 790 790 789 788 787 786 785 783 781 780 778 777 776 775 773 770
690 691 693 694 695 696 698 700 701 703 704 706 708 711 713 714 715 717 719 721 722 725 727 728 730 731 732 733 734 735 736 737 739 740 742 743 745 747 749 750 752 754 756 759 763 766 768 770 772 774 775 776 778 779 781 782 784 785 786 787 788 789 790 791 790 790 790 791 790 790 790 789 789 788 786 785 783 781 780 778 777 777 775 772 770
690 691 692 693 694 696 697 698 700 702 703 705 707 709 711 712 714 716 717 719 721 723 725 726 728 729 730 732 732 733 735 736 737 739 740 742 743 745 746 748 750 752 755 757 760 764 766 768 770 772 774 775 777 778 780 781 782 784 786 787 788 789 789 789 789 790 790 790 790 790 790 789 789 787 786 785 783 782 781 779 778 777 775 772 769
690 691 692 693 694 696 697 698 699 701 703 705 706 708 709 710 712 714 716 718 720 722 723 724 726 727 728 730 731 732 734 735 736 738 739 741 742 743 745 747 749 751 753 755 758 761 764 766 768 771 773 775 776 778 779 781 782 784 785 787 787 788 788 788 788 789 790 790 790 790 790 789 788 787 787 786 784 783 781 780 779 777 775 771 769
690 691 691 692 694 696 697 698 700 701 703 705 706 707 709 710 711 713 716 718 720 722 723 724 724 725 727 728 730 731 733 735 736 737 738 739 740 742 744 746 749 752 753 754 756 759 763 766 768 771 773 774 776 778 779 781 783 784 785 786 787 788 788 787 788 789 789 789 790 790 789 788 788 787 787 785 784 782 781 780 779 777 775 772 769
690 690 691 692 694 695 697 698 700 702 703 704 706 708 709 710 712 714 717 719 720 722 724 724 725 725 726 727 729 731 733 734 736 738 739 740 741 742 743 746 749 752 755 756 757 759 762 766 769 771 773 775 777 779 780 781 783 784 785 786 787 787 788 787 788 788 789 789 789 789 788 788 787 787 786 785 783 782 781 779 778 776 774 772 770
691 691 692 693 694 695 697 698 700 702 703 704 706 708 709 711 714 716 718 720 721 724 726 727 728 728 728 729 731 732 734 735 737 740 743 745 745 745 746 747 749 752 755 759 760 761 763 767 770 772 774 776 777 779 781 782 782 783 785 785 786 787 787 787 787 787 788 788 788 788 788 788 787 787 785 784 783 782 780 779 777 775 774 772 771
693 693 693 694 694 695 696 698 700 701 703 705 706 708 710 712 714 716 718 721 723 725 728 730 731 731 731 733 735 735 737 739 740 742 746 750 750 750 751 754 755 754 756 760 762 762 764 768 771 774 775 776 777 779 781 782 783 783 784 784 785 785 785 786 786 787 787 787 788 787 788 788 787 786 785 783 782 781 780 778 776 774 773 772 771
695 696 696 696 696 696 697 698 700 702 704 705 707 709 711 713 715 717 720 722 725 727 730 732 733 733 735 737 739 739 740 743 744 745 749 752 752 752 753 756 757 758 759 761 764 765 766 769 772 775 776 777 778 779 780 782 783 784 784 784 783 784 784 785 785 786 786 787 787 787 787 787 786 785 784 783 781 780 779 777 775 774 772 771 769
699 700 700 699 698 698 699 700 702 703 705 707 709 711 713 715 717 720 722 724 726 729 731 734 736 737 738 740 742 742 743 745 748 750 752 753 754 755 755 756 757 759 761 764 766 767 769 771 773 776 777 778 779 780 781 782 783 783 783 783 783 783 784 785 785 786 786 787 787 787 787 786 785 784 783 782 781 780 778 776 775 773 772 770 769
702 704 704 703 702 702 702 703 705 706 708 710 711 713 715 717 719 721 724 726 728 730 732 735 739 741 741 741 743 743 744 746 751 754 754 754 757 759 759 759 759 761 764 766 768 769 771 772 774 776 778 779 780 781 781 782 782 782 782 782 783 784 784 785 785 786 786 787 787 787 786 785 785 784 783 782 780 779 777 776 774 773 771 770 769
705 707 708 707 707 706 706 707 708 709 711 712 714 716 718 720 721 723 726 728 730 731 731 735 740 743 743 742 743 743 744 748 753 755 755 755 758 760 760 761 763 765 767 769 771 772 772 774 775 777 779 780 780 781 781 782 782 782 782 783 783 784 785 785 786 786 786 786 786 786 786 785 784 783 782 781 779 778 777 775 774 772 771 770 769
707 710 711 712 711 710 709 710 711 712 714 715 717 719 721 722 723 725 727 730 732 731 732 735 740 743 744 744 744 744 745 749 753 753 754 756 759 761 762 764 766 767 769 771 772 773 774 775 776 777 778 779 780 781 781 782 782 783 783 784 784 785 785 786 786 786 786 786 786 785 785 784 783 782 781 780 779 777 776 775 773 772 771 770 769
708 711 713 715 715 714 713 713 714 715 717 718 720 722 723 725 726 727 729 732 735 735 735 738 742 744 746 747 747 747 749 751 753 753 755 758 761 763 765 767 768 769 771 771 772 774 775 775 776 777 778 779 779 780 781 781 782 783 783 784 784 785 785 785 785 785 785 785 785 784 784 783 782 781 780 779 778 776 775 774 773 772 770 769 768
710 712 715 718 719 718 717 716 716 718 720 721 723 725 727 728 729 731 732 735 737 738 740 742 744 745 747 748 749 750 751 753 754 756 758 760 762 764 766 768 769 770 771 772 773 774 775 776 777 778 778 779 780 781 781 782 782 783 783 784 784 784 784 785 784 784 784 783 783 783 782 782 781 780 779 778 777 775 774 773 772 771 770 769 767
711 714 717 719 721 722 721 720 720 721 722 724 726 728 730 731 732 734 736 737 739 741 743 744 745 747 748 749 751 752 753 754 756 758 760 762 763 765 766 768 769 770 771 772 773 774 775 776 777 778 779 780 781 781 782 782 783 783 783 784 784 784 784 784 783 783 782 782 781 781 781 780 779 778 777 776 775 774 773 772 771 770 769 768 767
712 715 718 721 723 725 725 724 723 724 725 727 728 731 733 735 736 737 739 740 741 743 745 746 748 749 750 751 753 755 756 757 759 760 762 764 765 766 767 768 769 770 771 773 774 775 776 777 777 778 779 780 781 781 782 782 783 783 783 783 783 783 783 782 782 781 781 780 779 779 778 778 777 776 775 774 773 772 771 770 769 768 768 767 766
714 716 718 722 724 727 728 728 727 727 728 730 732 733 735 737 739 740 742 743 744 745 747 749 750 752 753 754 756 757 758 760 762 763 765 766 767 768 769 769 770 771 772 773 774 775 776 777 777 779 779 780 781 781 782 782 782 783 782 782 782 782 781 780 780 779 779 778 777 776 776 775 774 773 772 772 771 770 769 768 767 766 766 766 765
715 717 720 723 726 729 730 731 731 731 731 733 735 736 738 740 742 743 745 746 747 749 750 752 753 754 755 756 758 759 760 762 763 765 766 767 768 769 770 770 771 772 772 773 774 775 776 777 778 779 779 780 781 781 782 782 782 782 782 781 781 780 779 778 777 777 776 775 775 774 773 772 771 771 770 769 768 767 766 766 765 764 764 764 764
717 719 722 725 729 731 733 734 735 735 736 736 738 740 741 743 745 747 749 750 751 753 754 755 756 757 758 759 760 761 762 763 764 766 767 768 769 770 771 772 773 773 774 774 775 776 777 777 778 779 780 781 781 782 782 782 782 781 781 780 780 778 777 776 775 774 774 773 772 771 770 769 768 767 767 766 765 764 764 763 763 762 762 762 761
719 721 724 728 732 735 736 737 738 739 739 740 740 742 744 746 748 750 752 753 755 756 757 758 759 760 761 762 763 764 765 765 766 768 769 770 771 772 772 773 774 775 775 776 777 777 778 778 779 780 780 781 782 782 782 782 782 782 781 780 779 778 776 775 773 772 772 771 770 769 768 767 766 765 764 764 763 762 761 761 760 760 759 759 759
723 725 727 730 734 737 739 740 741 742 743 743 743 744 746 748 750 753 755 757 758 760 761 762 763 764 764 765 766 767 768 769 769 770 771 772 773 773 774 775 776 777 777 778 778 779 779 780 780 780 781 782 782 782 783 783 782 782 781 780 779 777 775 774 772 771 770 769 768 768 767 766 765 764 763 762 761 760 759 759 758 757 757 756 756